Tracking 19854 objects as of 21-Sep-2019
HD Live streaming from Space Station
objects crossing your sky now

SL-16 DEB

Track SL-16 DEB now!
10-day predictions


NORAD ID: 43353
Int'l Code: 1995-058N
Perigee: 802.4 km
Apogee: 832.8 km
Inclination: 71.0 °
Period: 101.1 minutes
Semi major axis: 7188 km
RCS: Unknown
Launch date: October 31, 1995
Source: Commonwealth of Independent States (former USSR) (CIS)
Launch site: TYURATAM MISSILE AND SPACE COMPLEX (TTMTR)

Note: This is SATELLITE DEBRIS
aabbcc
Your satellite tracking list
Your tracking list is empty




NASA's NSSDC Master Catalog

Two Line Element Set (TLE):
1 43353U 95058N   19263.81940914 -.00000578  00000-0 -22817-3 0  9997
2 43353  71.0130  48.2773 0021150  87.7543 272.6006 14.24407132302406
Source of the keplerian elements: AFSPC